Location: Bee Hill
(40.6667°S, 175.8667°E)
Time: 08:58:34
(UTC+00:00)

Daily predictions for brighter satellites

Satellite Brightness Start Highest point End
(mag) Time Altitude Azimuth Time Altitude Azimuth Time Altitude Azimuth
Cosmos 1943 Rocket 2.6 12:08:40 10° SW 12:13:29 48° W 12:13:29 48° W
Meteor 2-5 Rocket 3.7 12:09:03 10° S 12:14:42 72° E 12:14:50 71° E
Cosmos 1937 Rocket 3.5 12:17:01 72° SW 12:17:01 72° SW 12:22:00 10° SSE
Cosmos 1603 4.5 12:17:24 40° E 12:17:24 40° E 12:22:29 10° SE
ATLAS 2AS CENTAUR R/B 4.4 12:13:23 10° WSW 12:18:01 18° WNW 12:18:01 18° WNW
Cosmos 2279 Rocket 3.9 12:16:13 10° S 12:22:32 74° W 12:23:04 70° NW
USA 307 4.4 12:19:39 10° SW 12:21:56 31° SW 12:21:56 31° SW
Cosmos 1975 Rocket 4.0 12:20:02 10° S 12:23:45 44° SE 12:23:45 44° SE
Meteor 2-21 Rocket 4.4 12:24:23 68° NE 12:24:52 71° E 12:30:59 10° SSE
Meteor 1-15 Rocket 4.5 12:29:23 54° W 12:29:41 55° WSW 12:35:14 10° S
Meteor 2-14 Rocket 4.4 12:29:40 68° WNW 12:30:13 72° W 12:36:22 10° S
Cosmos 1758 4.5 12:35:30 41° SE 12:35:30 41° SE 12:38:22 10° SSE
Meteor 2-21 4.4 12:36:12 65° WNW 12:36:46 69° W 12:42:53 10° S
Cosmos 1680 Rocket 3.9 12:32:53 10° SSW 12:37:30 54° WSW 12:37:30 54° WSW
Geosat 4.2 12:38:44 64° WSW 12:38:44 64° WSW 12:43:13 10° SSW
Cosmos 371 Rocket 3.5 12:40:50 70° SE 12:40:50 70° SE 12:45:15 10° SSE
ERS-2 3.8 12:42:05 32° SSW 12:42:05 32° SSW 12:44:10 10° SSW
SME Rocket 3.5 12:34:28 10° SSE 12:40:35 83° ESE 12:40:35 83° ESE
Meteor 1-22 Rocket 4.4 12:43:04 55° W 12:43:11 55° WSW 12:48:38 10° S
Cosmos 2369 Rocket 2.0 12:37:38 10° SSW 12:43:23 89° ESE 12:43:39 82° NNE
ADEOS Rocket 4.1 12:40:34 10° S 12:45:51 34° WSW 12:47:31 30° W
Cosmos 1943 3.0 12:46:19 83° NNE 12:46:30 86° ENE 12:52:12 10° SSE
Meteor 1-24 Rocket 3.6 12:41:14 10° SSW 12:46:22 67° W 12:46:22 67° W
Cosmos 44 Rocket 3.4 12:53:31 82° SSW 12:53:31 82° SSW 12:58:37 10° SSE
Lacrosse 5 rocket 4.1 12:51:20 10° WSW 12:53:41 15° SSW 12:55:59 10° S
Cosmos 1656 Rocket 3.5 12:51:01 10° SSW 12:56:42 79° WNW 12:56:50 78° NW
Cosmos 1908 4.4 12:59:45 40° S 12:59:45 40° S 13:02:21 10° S
GP-B 3.4 12:54:21 10° S 12:58:15 64° SSW 12:58:15 64° SSW
Cosmos 2026 Rocket 4.2 12:59:32 52° NE 13:00:40 60° E 13:06:41 10° SSE
Cosmos 2195 Rocket 4.5 12:59:38 60° NNE 13:00:43 73° E 13:07:01 10° S
Cosmos 2292 Rocket 4.1 13:01:36 71° WNW 13:01:56 74° W 13:06:48 10° S
IDEFIX/ARIANE 42P 3.3 13:01:15 39° ENE 13:02:38 48° ESE 13:07:44 10° S
Exosat Rocket 4.3 13:07:21 53° N 13:09:01 72° ENE 13:17:58 10° SSE
Cosmos 1025 Rocket 3.9 13:07:17 10° SSW 13:10:34 41° SW 13:10:34 41° SW
Cosmos 304 Rocket 3.8 13:12:10 74° SW 13:12:10 74° SW 13:16:52 10° SSE
SL-16 R/B 4.3 13:10:42 13° W 13:13:30 19° SW 13:17:27 10° S
Cosmos 1703 4.0 13:11:05 10° S 13:14:08 52° S 13:14:08 52° S
Cosmos 1461 3.8 13:16:24 43° SW 13:16:24 43° SW 13:20:21 10° SSE
Cosmos 332 Rocket 3.7 13:17:56 88° NE 13:17:59 88° ENE 13:22:58 10° SSE
Resurs 1-4 Rocket 2.0 13:18:31 68° WNW 13:18:40 68° WNW 13:23:59 10° SSW
CZ-2D R/B 2.1 13:19:54 66° NW 13:20:18 69° WNW 13:25:51 10° SSW
ALOS 2 3.7 13:16:53 10° S 13:20:46 35° WSW 13:20:46 35° WSW
Cosmos 1092 Rocket 4.0 13:21:06 58° NNW 13:22:26 82° W 13:28:52 10° S
Thor Agena Rocket 3.5 13:23:32 64° WNW 13:23:35 64° WNW 13:28:49 10° SSW
Cosmos 1300 3.4 13:24:22 53° SE 13:24:22 53° SE 13:27:29 10° SSE
Genesis I 4.4 13:30:05 35° ESE 13:30:05 35° ESE 13:32:35 10° SE
USA 281 4.1 13:25:31 10° SE 13:31:38 38° ENE 13:34:04 29° NNE
Cosmos 1125 Rocket 3.4 13:32:35 68° N 13:33:17 84° ENE 13:38:40 10° SSE
Lacrosse 5 3.7 13:33:26 19° ENE 13:33:36 19° ENE 13:37:09 10° ESE
Okean 2 Rocket 3.1 13:34:32 73° WSW 13:34:32 73° WSW 13:39:07 10° S
CENTAUR R/B 3.9 13:31:45 29° NNE 13:34:50 38° ENE 13:41:31 10° SE
USA 234 3.2 13:29:56 10° SE 13:36:36 89° NE 13:38:55 45° NW
ADEOS II 2.0 13:37:47 63° N 13:38:40 81° WNW 13:44:01 10° SSW
Cosmos 494 Rocket 3.9 13:33:20 10° SSW 13:38:40 81° WNW 13:39:26 65° N
CZ-4 R/B 3.8 13:41:06 63° WNW 13:41:08 63° WNW 13:45:53 10° SSW
Cosmos 1953 2.7 13:45:37 53° SW 13:45:37 53° SW 13:49:12 10° S
AQUA 3.8 13:45:58 62° WNW 13:46:08 63° W 13:50:56 10° SSW
Cosmos 1455 3.9 13:50:09 23° ENE 13:50:55 24° E 13:54:00 10° SE
SL-8 R/B 4.3 13:49:35 10° SW 13:54:21 56° SSE 13:59:06 10° ENE
Milstar 3 4.1 13:52:44 34° NNW 13:55:55 41° NNE 14:10:30 10° E
Cosmos 1048 Rocket 4.1 13:51:15 10° SSW 13:56:34 57° WNW 13:57:16 53° NW
IRIDIUM 104 4.2 13:55:40 54° N 13:56:55 86° W 14:02:15 10° S
Okean 1 Rocket 2.9 14:01:38 67° NW 14:02:08 77° W 14:06:40 10° S
Cosmos 1536 Rocket 3.8 13:58:35 10° SSW 14:02:54 51° W 14:02:54 51° W
Lacrosse 4 Rocket 3.7 14:00:40 10° S 14:03:57 23° SE 14:07:13 10° ENE
IRIDIUM 114 4.3 14:04:48 50° NNW 14:06:05 70° W 14:11:24 10° S
Cosmos 292 Rocket 4.2 14:04:49 41° NNE 14:06:10 56° ENE 14:10:59 10° SSE
GEOS 3 Rocket 3.9 14:03:21 10° NE 14:08:38 70° SE 14:13:53 10° SSW
Cosmos 2150 Rocket 4.4 14:09:52 41° WNW 14:11:25 55° WSW 14:16:52 10° S
SL-16 R/B 4.5 14:09:02 10° SE 14:13:51 22° E 14:18:38 10° NE
MOZ.5/SAFIR/RUBIN 5/SL-8 4.2 14:09:45 10° SSE 14:14:31 58° E 14:16:22 34° NNE
IRIDIUM 103 4.5 14:13:56 44° NW 14:15:15 57° W 14:20:30 10° S
Cosmos 1340 Rocket 2.8 14:13:00 10° S 14:17:04 83° E 14:18:04 50° NNE
Cosmos 1825 2.7 14:21:11 10° S 14:24:54 55° E 14:26:34 29° NE
OE (NEXTSAT) 4.3 14:24:16 48° SW 14:24:57 67° SSE 14:28:04 10° ENE
ISS -3.9 14:25:23 79° W 14:25:32 83° SW 14:28:58 10° SE
Cosmos 2369 Rocket 4.3 14:24:41 10° WSW 14:25:25 11° W 14:25:25 11° W
H-2A R/B 4.0 14:13:07 10° WNW 14:27:25 29° NNW 14:30:44 10° NE
BlueWalker 3 4.3 14:26:10 13° NE 14:26:56 13° NE 14:28:50 10° E
SAR-Lupe-2 4.4 14:25:23 22° NE 14:27:25 48° ESE 14:30:57 10° S
Cosmos 1417 Rocket 4.4 14:23:44 10° S 14:29:56 75° W 14:33:32 26° N
MOS 1 Rocket 3.9 14:28:25 10° S 14:33:34 54° WSW 14:35:45 33° NW
Meteor 1-11 4.2 14:27:56 10° SSW 14:33:40 70° W 14:36:47 27° N
S3M 3.9 14:27:20 10° S 14:33:42 85° W 14:38:09 20° N
Cosmos 1553 Rocket 4.4 14:29:43 10° SSW 14:35:49 49° W 14:38:46 29° NNW
Cosmos 1408 3.4 14:33:04 10° SSW 14:36:02 34° W 14:36:02 34° W
Cosmos 2266 Rocket 4.0 14:33:34 27° NNW 14:37:17 81° W 14:43:49 10° S
FENGYUN 3A 3.6 14:34:41 22° N 14:38:20 80° WNW 14:43:48 10° SSW
Cosmos 1455 Rocket 3.0 14:39:14 35° NNW 14:41:07 82° W 14:45:40 10° S
IDEFIX/ARIANE 42P 4.0 14:42:03 21° W 14:42:25 21° W 14:46:22 10° SW
CZ-2C R/B 2.9 14:38:03 10° NNE 14:43:12 66° ESE 14:48:25 10° S
Cosmos 1833 Rocket 3.2 14:44:19 20° N 14:48:05 53° ENE 14:53:37 10° SSE
In-Cosmos 22 Rocket 4.2 14:46:00 10° SSW 14:51:44 64° W 14:55:39 20° N
Cosmos 1269 Rocket 4.0 14:51:41 10° SSW 14:57:05 90° SSE 15:02:25 10° NNE
Cosmos 1633 2.3 14:54:07 10° S 14:57:36 84° W 14:59:28 25° N
SL-4 R/B 3.8 14:57:53 14° NNE 14:59:27 18° NE 15:02:05 10° E
ALOS 2.3 14:56:13 19° N 14:59:30 64° WNW 15:04:13 10° SSW
DNEPR-1 R/B 3.5 14:57:11 10° SSW 15:01:57 86° ESE 15:06:07 10° NNE
NOSS 3-2 (A) 4.3 14:57:32 21° NW 15:03:49 71° SW 15:11:38 10° SSE
FALCON 9 DEB 3.0 15:01:25 10° WSW 15:04:28 46° NW 15:07:28 10° NNE
Iridium 2 4.5 15:04:00 11° NNE 15:07:24 49° E 15:11:03 10° SSE
UNK 4.5 15:03:49 10° SSE 15:08:28 52° E 15:13:01 10° N
MOS 1-B Rocket 4.0 15:04:04 10° S 15:09:44 63° WSW 15:13:50 19° NNW
CZ-2C R/B 4.5 15:07:09 10° NE 15:12:23 45° ESE 15:17:51 10° S
Cosmos 1892 4.2 15:09:33 10° SW 15:12:25 20° W 15:13:02 19° WNW
Lacrosse 5 2.0 15:12:38 21° NW 15:16:04 71° SW 15:21:14 10° SE
USA 281 3.9 15:09:56 10° S 15:16:05 42° WSW 15:20:57 16° WNW
Okean 1-7 Rocket 3.8 15:12:58 10° S 15:17:34 79° E 15:22:09 10° N
Cosmos 1656 3.6 15:13:03 10° SSW 15:18:41 69° WNW 15:24:18 10° NNE
COSMOS 2406 4.1 15:14:58 10° N 15:20:27 47° ENE 15:25:58 10° SE
IRS-1C 4.1 15:15:40 10° NNE 15:21:02 87° WNW 15:26:28 10° SSW
Chandra Rocket (1) 3.6 15:23:16 11° N 15:23:16 11° N 15:23:33 10° N
CBERS-1 4.5 15:18:42 14° NNW 15:22:41 41° W 15:27:34 10° SSW
Cosmos 1238 Rocket 4.3 15:22:19 13° W 15:22:44 13° WSW 15:24:14 10° SW
CENTAUR R/B 3.3 15:18:55 16° WNW 15:25:28 53° SW 15:32:16 10° SSE
Cosmos 1455 3.8 15:24:49 16° WNW 15:26:14 19° WSW 15:29:02 10° SSW
Meteor 1-28 Rocket 3.2 15:24:44 10° SSE 15:28:34 86° ENE 15:32:10 11° NNW
PAYLOAD A 4.2 15:26:06 10° N 15:30:41 43° W 15:35:16 10° SSW
EO 1 Del DPAF 3.3 15:31:37 16° NNW 15:33:45 36° W 15:36:40 10° SSW
Cosmos 2082 Rocket 3.0 15:29:31 10° N 15:34:58 49° ENE 15:40:27 10° SE
SL-8 R/B 4.1 15:32:18 10° WSW 15:36:47 39° NW 15:41:14 10° NNE
Cosmos 1626 Rocket 3.6 15:34:46 10° SSW 15:39:10 60° W 15:43:30 10° N
ARIANE 5 R/B 2.6 15:34:45 10° N 15:39:58 69° WNW 15:45:13 10° SSW
ERS-1 4.5 15:36:32 10° N 15:41:33 72° WNW 15:46:42 10° SSW
Envisat 3.1 15:36:49 10° NNE 15:41:56 88° ESE 15:47:07 10° SSW
Lacrosse 4 Rocket 2.1 15:38:56 10° SW 15:42:32 31° WNW 15:46:08 10° N
NOSS 3-2 (C) 4.3 15:35:48 13° NW 15:43:58 71° SW 15:51:47 10° SSE
ASTEX 1 4.4 15:42:17 10° SSE 15:47:13 49° E 15:52:04 10° NNE
Cosmos 1697 Rocket 2.7 15:44:12 10° SSW 15:49:54 84° WNW 15:55:32 10° NNE
ATLAS 5 CENTAUR R/B 4.2 15:47:32 10° SSW 15:52:34 30° SE 15:56:48 10° ENE
USA 238 DEB 4.1 15:48:32 10° NW 15:56:13 67° SW 16:03:36 10° SSE
USA 238 4.1 15:48:38 10° NW 15:56:19 67° SW 16:03:43 10° SSE
SL-16 R/B 2.8 15:51:37 10° S 15:57:47 58° WSW 16:03:55 10° NNW
Cosmos 1484 Rocket 3.0 15:55:20 10° N 15:59:08 52° W 16:03:03 10° SSW
Cosmos 2360 4.3 15:55:29 10° SSW 16:01:13 66° WNW 16:06:53 10° N
PSLV R/B 4.5 15:57:35 10° NNE 16:01:52 55° ESE 16:06:12 10° S
ISS -1.4 16:00:08 10° WSW 16:02:42 19° SSW 16:05:16 10° SSE
Cosmos 2369 4.3 15:58:26 10° SSW 16:04:13 67° ESE 16:09:55 10° NNE
BlueWalker 3 2.0 16:01:10 10° NW 16:05:06 81° SW 16:09:06 10° SE
Cosmos 1825 Rocket 4.0 16:00:54 10° S 16:05:20 69° E 16:09:43 10° NNE
NOAA 11 4.3 16:01:19 10° NNE 16:06:51 87° ESE 16:12:28 10° SSW
Cosmos 2058 2.9 16:03:08 10° S 16:07:23 78° W 16:11:32 10° N
Cosmos 2228 3.4 16:07:08 10° NNW 16:11:24 47° W 16:15:41 10° S
